TimeCST,TemperatureF,Dew PointF,Humidity,Sea Level PressureIn,VisibilityMPH,Wind Direction,Wind SpeedMPH,Gust SpeedMPH,PrecipitationIn,Events,Conditions,WindDirDegrees,DateUTC
12:15 AM,65.5,59.9,82,29.77,10.0,South,12.7,-,N/A,,Overcast,170,2014-02-01 06:15:00
12:35 AM,66.2,60.1,81,29.77,10.0,South,11.5,18.4,N/A,,Overcast,190,2014-02-01 06:35:00
12:55 AM,66.4,60.4,81,29.77,10.0,South,13.8,21.9,N/A,,Overcast,190,2014-02-01 06:55:00
1:15 AM,66.6,60.3,80,29.77,10.0,South,13.8,23.0,N/A,,Overcast,190,2014-02-01 07:15:00
1:35 AM,66.6,60.3,80,29.77,10.0,South,11.5,-,N/A,,Overcast,190,2014-02-01 07:35:00
1:55 AM,66.4,60.3,81,29.77,10.0,South,10.4,19.6,N/A,,Overcast,190,2014-02-01 07:55:00
2:15 AM,66.4,60.1,80,29.77,10.0,South,9.2,19.6,N/A,,Overcast,190,2014-02-01 08:15:00
2:35 AM,66.6,60.1,80,29.78,10.0,SSW,11.5,20.7,N/A,,Overcast,200,2014-02-01 08:35:00
2:55 AM,66.7,60.1,79,29.79,10.0,SSW,10.4,17.3,N/A,,Overcast,200,2014-02-01 08:55:00
3:15 AM,67.1,60.3,79,29.78,10.0,SSW,13.8,19.6,N/A,,Overcast,200,2014-02-01 09:15:00
3:35 AM,66.6,60.8,82,29.79,10.0,SSW,13.8,23.0,N/A,,Drizzle,200,2014-02-01 09:35:00
3:55 AM,66.2,61.3,84,29.79,10.0,SSW,10.4,20.7,N/A,,Light Drizzle,200,2014-02-01 09:55:00
4:15 AM,65.8,61.5,86,29.79,10.0,SSW,9.2,16.1,N/A,,Light Drizzle,200,2014-02-01 10:15:00
4:35 AM,65.5,61.7,88,29.79,10.0,SSW,11.5,17.3,N/A,,Light Drizzle,200,2014-02-01 10:35:00
4:55 AM,65.7,61.7,87,29.78,10.0,South,9.2,-,N/A,,Drizzle,190,2014-02-01 10:55:00
5:15 AM,65.7,61.3,86,29.79,10.0,South,8.1,-,N/A,,Overcast,180,2014-02-01 11:15:00
5:35 AM,65.7,61.2,85,29.79,10.0,South,8.1,-,N/A,,Overcast,180,2014-02-01 11:35:00
5:55 AM,65.5,61.0,85,29.79,10.0,South,5.8,-,N/A,,Overcast,170,2014-02-01 11:55:00
6:15 AM,65.3,61.0,86,29.80,10.0,South,5.8,-,N/A,,Overcast,170,2014-02-01 12:15:00
6:35 AM,65.3,60.8,85,29.81,10.0,South,3.5,-,N/A,,Overcast,170,2014-02-01 12:35:00
6:55 AM,64.4,61.2,89,29.81,10.0,SSE,4.6,-,N/A,,Overcast,160,2014-02-01 12:55:00
7:15 AM,63.9,60.8,90,29.81,10.0,Calm,Calm,-,N/A,Rain,Rain,0,2014-02-01 13:15:00
7:35 AM,63.0,61.0,93,29.82,5.0,Calm,Calm,-,N/A,Rain,Heavy Rain,0,2014-02-01 13:35:00
7:55 AM,60.6,59.2,95,29.83,2.5,Calm,Calm,-,N/A,Rain,Heavy Rain,0,2014-02-01 13:55:00
8:15 AM,60.3,59.0,96,29.83,1.5,Calm,Calm,-,N/A,,Drizzle,0,2014-02-01 14:15:00
8:35 AM,52.2,50.5,94,29.85,1.5,WNW,9.2,-,N/A,,Overcast,290,2014-02-01 14:35:00
8:55 AM,48.9,47.5,95,29.85,1.8,WNW,8.1,-,N/A,,Overcast,290,2014-02-01 14:55:00
9:15 AM,47.8,46.6,95,29.86,1.8,WNW,13.8,-,N/A,,Overcast,300,2014-02-01 15:15:00
9:35 AM,46.0,44.8,95,29.87,1.8,WNW,11.5,-,N/A,,Overcast,300,2014-02-01 15:35:00
9:55 AM,45.3,44.1,95,29.88,1.5,WNW,10.4,-,N/A,,Overcast,290,2014-02-01 15:55:00
10:15 AM,44.6,43.7,97,29.88,1.2,WNW,10.4,-,N/A,,Overcast,290,2014-02-01 16:15:00
10:35 AM,44.6,43.5,96,29.88,1.0,WNW,11.5,-,N/A,,Overcast,300,2014-02-01 16:35:00
10:55 AM,44.2,43.2,96,29.88,1.0,WNW,11.5,-,N/A,,Overcast,300,2014-02-01 16:55:00
11:15 AM,44.1,43.2,97,29.89,1.2,WNW,11.5,-,N/A,,Overcast,290,2014-02-01 17:15:00
11:35 AM,44.2,43.3,97,29.89,1.0,NW,11.5,-,N/A,,Overcast,310,2014-02-01 17:35:00
11:55 AM,44.8,43.9,97,29.89,1.2,NW,11.5,-,N/A,,Overcast,310,2014-02-01 17:55:00
12:15 PM,45.1,44.2,97,29.88,2.0,NW,12.7,-,N/A,Rain,Light Rain,320,2014-02-01 18:15:00
12:35 PM,45.1,44.2,97,29.88,4.0,NW,12.7,-,N/A,,Overcast,320,2014-02-01 18:35:00
12:55 PM,45.1,43.9,95,29.87,5.0,NNW,11.5,-,N/A,,Overcast,330,2014-02-01 18:55:00
1:15 PM,44.6,43.2,95,29.86,4.0,NW,9.2,-,N/A,Rain,Rain,320,2014-02-01 19:15:00
1:35 PM,43.3,41.9,95,29.86,7.0,NW,11.5,-,N/A,,Overcast,320,2014-02-01 19:35:00
1:55 PM,42.8,41.2,94,29.86,4.0,NW,9.2,-,N/A,Rain,Rain,310,2014-02-01 19:55:00
2:15 PM,42.8,41.2,94,29.86,4.0,NW,10.4,-,N/A,,Overcast,320,2014-02-01 20:15:00
2:35 PM,42.6,41.0,94,29.87,7.0,NW,10.4,-,N/A,,Overcast,320,2014-02-01 20:35:00
2:55 PM,42.8,41.0,93,29.87,10.0,NW,10.4,-,N/A,,Overcast,320,2014-02-01 20:55:00
3:15 PM,43.7,41.0,90,29.87,10.0,NW,10.4,-,N/A,,Overcast,320,2014-02-01 21:15:00
3:35 PM,43.9,41.2,90,29.87,10.0,NNW,11.5,-,N/A,,Overcast,330,2014-02-01 21:35:00
3:55 PM,43.7,40.6,89,29.89,10.0,NW,10.4,-,N/A,,Overcast,310,2014-02-01 21:55:00
4:15 PM,43.0,39.9,89,29.89,10.0,NW,10.4,-,N/A,,Overcast,320,2014-02-01 22:15:00
4:35 PM,42.8,39.6,88,29.90,10.0,NW,8.1,-,N/A,,Overcast,320,2014-02-01 22:35:00
4:55 PM,42.1,39.2,90,29.90,10.0,NW,12.7,-,N/A,,Overcast,320,2014-02-01 22:55:00
5:15 PM,41.9,39.0,90,29.90,10.0,NW,12.7,-,N/A,,Overcast,320,2014-02-01 23:15:00
5:35 PM,42.1,38.8,88,29.91,10.0,NNW,10.4,-,N/A,,Overcast,330,2014-02-01 23:35:00
5:55 PM,42.3,38.8,88,29.93,10.0,NNW,9.2,-,N/A,,Overcast,330,2014-02-01 23:55:00
6:15 PM,42.1,38.5,87,29.93,10.0,NNW,10.4,-,N/A,,Overcast,330,2014-02-02 00:15:00
6:35 PM,41.9,38.3,87,29.94,10.0,NNW,11.5,-,N/A,,Overcast,340,2014-02-02 00:35:00
6:55 PM,41.9,37.9,86,29.95,10.0,NNW,11.5,-,N/A,,Overcast,340,2014-02-02 00:55:00
7:15 PM,41.5,37.4,85,29.96,10.0,NW,10.4,-,N/A,,Overcast,320,2014-02-02 01:15:00
7:35 PM,41.2,37.0,85,29.97,7.0,NNW,11.5,-,N/A,,Overcast,340,2014-02-02 01:35:00
7:55 PM,41.0,36.5,84,29.98,10.0,NNW,13.8,17.3,N/A,,Overcast,340,2014-02-02 01:55:00
8:15 PM,40.5,36.5,86,29.98,7.0,NNW,12.7,-,N/A,,Overcast,330,2014-02-02 02:15:00
8:35 PM,40.1,36.5,87,30.00,7.0,NNW,11.5,18.4,N/A,,Overcast,330,2014-02-02 02:35:00
8:55 PM,40.1,36.1,86,30.00,7.0,NNW,15.0,20.7,N/A,,Overcast,340,2014-02-02 02:55:00
9:15 PM,39.7,36.0,86,30.00,7.0,NNW,12.7,18.4,N/A,,Overcast,340,2014-02-02 03:15:00
9:35 PM,39.7,35.8,86,30.01,7.0,North,13.8,19.6,N/A,,Overcast,350,2014-02-02 03:35:00
9:55 PM,39.4,35.4,86,30.01,7.0,NNW,16.1,20.7,N/A,,Overcast,340,2014-02-02 03:55:00
10:15 PM,39.2,34.7,84,30.01,10.0,North,17.3,25.3,N/A,,Overcast,350,2014-02-02 04:15:00
10:35 PM,38.7,34.3,84,30.02,10.0,North,15.0,21.9,N/A,,Overcast,350,2014-02-02 04:35:00
10:55 PM,38.3,33.8,84,30.02,10.0,North,17.3,25.3,N/A,,Overcast,350,2014-02-02 04:55:00
11:15 PM,37.8,33.3,84,30.02,10.0,NNW,15.0,21.9,N/A,,Overcast,340,2014-02-02 05:15:00
11:35 PM,37.6,33.3,84,30.02,10.0,North,12.7,24.2,N/A,,Overcast,350,2014-02-02 05:35:00
11:55 PM,37.4,33.1,84,30.02,10.0,North,17.3,25.3,N/A,,Overcast,350,2014-02-02 05:55:00